Oxnard, CA

12:00 PM PDT on March 23, 2017 (GMT -0700)
Oxnard

Weather History for KOXR - June, 2014

Change the Weather History Date:

Monday, June 9, 2014

  Actual Average Record
Temperature  
Mean Temperature 62 °F -  
Max Temperature 68 °F 70 °F 79 °F (1974)
Min Temperature 57 °F 55 °F 45 °F (1961)
Degree Days  
Heating Degree Days 4    
Growing Degree Days 12 (Base 50)    
Moisture  
Dew Point 57 °F    
Average Humidity 88    
Maximum Humidity 100    
Minimum Humidity 73    
Precipitation  
Precipitation 0.00 in - - ()
Sea Level Pressure  
Sea Level Pressure 29.79 in    
Wind  
Wind Speed 3 mph (West)    
Max Wind Speed 9 mph    
Max Gust Speed -    
Visibility 6 miles    
Events Fog    
Averages and records for this station are not official NWS values.
T = Trace of Precipitation, MM = Missing Value Source: NWS Daily Summary

Daily Weather History Graph

Daily Weather History Graph

Search for Another Location

Airport or City:

Trip Planner

Search our weather history database for the weather conditions in past years. The results will help you decide how hot, cold, wet, or windy it might be!

Date:

Astronomy

Jun. 09, 2014 Rise Set
Actual Time 5:44 AM PDT 8:07 PM PDT
Civil Twilight 5:15 AM PDT 8:36 PM PDT
Nautical Twilight 4:39 AM PDT 9:12 PM PDT
Astronomical Twilight 4:00 AM PDT 9:52 PM PDT
Moon 4:41 PM PDT (6/9) 3:05 AM PDT (6/9)
Length of Visible Light 15h 21m
Length of Day
14h 23m
Waxing Gibbous, 86% of the Moon is Illuminated
Jun 9
Waxing Gibbous
Jun 12
Full
Jun 19
Last Quarter
Jun 27
New
Jul 5
First Quarter

Hourly Weather History & Observations

Time (PDT) Temp. Dew Point Humidity Pressure Visibility Wind Dir Wind Speed Gust Speed Precip Events Conditions
12:51 AM 59.0 °F 57.0 °F 93% 29.80 in 5.0 mi Calm Calm - N/A   Overcast
1:51 AM 59.0 °F 55.9 °F 90% 29.80 in 5.0 mi Calm Calm - N/A   Overcast
2:33 AM 59.0 °F 57.2 °F 94% 29.79 in 1.8 mi West 4.6 mph - N/A   Overcast
2:40 AM 57.2 °F 57.2 °F 100% 29.79 in 1.5 mi West 5.8 mph - N/A   Overcast
2:51 AM 57.9 °F 57.0 °F 97% 29.79 in 1.0 mi WSW 4.6 mph - N/A   Overcast
3:51 AM 57.0 °F 55.9 °F 96% 29.78 in 1.5 mi West 5.8 mph - N/A   Overcast
4:51 AM 57.0 °F 55.9 °F 96% 29.78 in 1.0 mi NNW 3.5 mph - N/A   Overcast
5:51 AM 57.0 °F 55.9 °F 96% 29.79 in 1.0 mi Calm Calm - N/A   Overcast
6:13 AM 57.2 °F 55.4 °F 94% 29.80 in 0.5 mi Calm Calm - N/A Fog Fog
6:51 AM 57.0 °F 57.0 °F 100% 29.80 in 1.0 mi Calm Calm - N/A   Overcast
7:51 AM 57.9 °F 55.9 °F 93% 29.81 in 2.0 mi Calm Calm - N/A   Overcast
8:51 AM 57.9 °F 55.9 °F 93% 29.82 in 5.0 mi West 3.5 mph - N/A   Overcast
9:51 AM 57.9 °F 55.9 °F 93% 29.83 in 7.0 mi SW 5.8 mph - N/A   Overcast
10:23 AM 59.0 °F 55.4 °F 88% 29.84 in 7.0 mi South 5.8 mph - N/A   Overcast
10:51 AM 60.1 °F 55.0 °F 83% 29.83 in 10.0 mi West 4.6 mph - N/A   Overcast
12:22 PM 62.6 °F 55.4 °F 77% 29.82 in 10.0 mi WSW 5.8 mph - N/A   Overcast
1:51 PM 66.0 °F 57.0 °F 73% 29.81 in 10.0 mi SW 9.2 mph - N/A   Mostly Cloudy
2:51 PM 64.9 °F 57.0 °F 75% 29.80 in 10.0 mi WSW 8.1 mph - N/A   Overcast
3:51 PM 66.0 °F 57.0 °F 73% 29.77 in 10.0 mi WSW 5.8 mph - N/A   Scattered Clouds
4:51 PM 66.0 °F 57.0 °F 73% 29.75 in 10.0 mi West 8.1 mph - N/A   Clear
5:18 PM 64.4 °F 57.2 °F 77% 29.75 in 10.0 mi WSW 8.1 mph - N/A   Partly Cloudy
5:33 PM 62.6 °F 57.2 °F 82% 29.75 in 10.0 mi WSW 9.2 mph - N/A   Mostly Cloudy
5:51 PM 62.1 °F 57.0 °F 84% 29.75 in 9.0 mi West 8.1 mph - N/A   Overcast
6:51 PM 60.1 °F 55.9 °F 86% 29.76 in 10.0 mi WSW 6.9 mph - N/A   Overcast
7:51 PM 60.1 °F 57.0 °F 90% 29.77 in 7.0 mi WSW 4.6 mph - N/A   Overcast
8:51 PM 60.1 °F 57.0 °F 90% 29.78 in 8.0 mi WNW 4.6 mph - N/A   Overcast
9:26 PM 60.8 °F 57.2 °F 88% 29.79 in 6.0 mi NW 4.6 mph - N/A   Overcast
9:51 PM 59.0 °F 57.0 °F 93% 29.81 in 5.0 mi NW 3.5 mph - N/A   Overcast
10:51 PM 59.0 °F 57.0 °F 93% 29.81 in 5.0 mi North 3.5 mph - N/A   Overcast
11:47 PM 60.8 °F 57.2 °F 88% 29.81 in 6.0 mi North 3.5 mph - N/A   Overcast
11:51 PM 61.0 °F 57.9 °F 90% 29.81 in 6.0 mi Calm Calm - N/A   Overcast